CAPE
346 436 1445 1303 1384 1040 945 877 858 797 735 791 795 706 597 524 539 552 555 633 780 485 412 386 348 325 305 278 245 204 180 139 128 120 185 609 806 0 36 244 550 455 1623
430 192 1541 1515 1493 1054 988 975 876 719 640 584 586 573 586 508 372 272 243 268 339 343 365 403 466 531 559 559 559 562 515 407 307 252 216 213 732 406 427 585 661 548 485
407 131 528 1741 1661 1489 1114 827 666 602 585 609 587 331 131 125 166 267 479 645 692 698 745 828 885 841 710 615 536 557 628 667 689 525 439 146 0 1457 922 804 770 919 188
615 776 702 1868 1621 1067 780 652 834 754 521 238 167 181 292 447 594 707 742 777 846 722 654 478 444 461 497 533 622 748 885 983 979 949 470 0 0 2014 1311 1052 720 758 871
1216 1195 989 1719 1304 654 995 711 533 372 438 712 821 936 1069 979 1087 1172 1013 773 705 541 646 854 669 479 601 775 689 701 712 676 778 979 571 274 626 1858 2092 1760 1513 1432 1574
522 941 1291 1324 1460 970 556 714 845 1145 1074 912 630 506 456 379 282 271 230 194 184 179 197 202 198 101 3 322 789 771 773 982 1144 518 219 471 394 1557 1345 1153 611 910 1301
445 437 384 1634 1273 982 949 782 628 399 233 220 185 208 184 115 87 39 24 0 0 0 0 0 0 0 0 0 39 97 121 163 117 138 496 587 642 1553 1675 1320 1234 1416 1882
33 163 609 1146 1249 1154 711 259 133 33 0 0 0 0 29 0 0 0 0 0 0 0 0 0 0 0 0 0 0 0 0 71 30 36 87 1071 1362 1241 1431 1707 1799 2030 2396
223 308 212 528 760 502 197 77 0 0 0 0 0 0 0 0 0 0 0 0 0 0 0 0 0 0 0 0 0 2 0 22 7 7 167 1248 1297 1151 1476 1521 1657 1530 2345
80 63 243 399 349 249 0 0 0 0 0 0 0 0 0 0 0 0 0 0 0 0 0 0 0 0 0 0 0 0 23 58 0 1 168 1401 1426 1558 1407 1284 1392 1517 2145
88 204 309 267 486 252 10 0 0 0 0 0 0 0 0 0 0 0 0 0 0 0 0 0 0 0 0 0 57 322 97 0 0 0 505 2176 2180 1653 1563 1169 1035 1205 1788
178 494 700 1166 755 442 172 31 188 17 0 0 0 0 0 0 0 0 0 0 0 0 2 0 10 19 3 0 0 0 14 0 0 0 341 1745 1357 1300 1435 1480 1210 1033 1476
1050 1421 1454 1871 1465 774 527 608 438 116 47 0 0 0 0 0 0 0 0 0 0 0 0 0 0 0 0 0 0 0 0 0 0 0 222 602 282 32 51 647 1403 1589 1586
1188 1954 1827 1807 1993 1909 954 947 428 66 46 0 0 0 0 0 0 0 0 0 0 0 0 0 0 0 0 4 1 0 3 0 0 0 0 89 44 42 15 47 682 1161 1361
1187 2083 2111 2445 2291 1957 1488 919 595 91 0 0 0 0 0 0 0 0 1 0 0 0 0 0 0 3 3 15 7 4 6 13 15 19 19 751 730 460 435 337 207 1031 1011
1182 2213 1911 1941 2002 1422 1199 888 321 89 0 0 0 0 0 0 0 0 0 0 0 4 0 9 0 13 17 10 0 18 22 39 44 41 56 127 472 324 557 506 594 831 767
1624 2081 2220 1382 765 848 804 516 215 21 0 0 0 0 0 0 0 8 5 0 0 2 13 9 19 9 13 0 19 33 38 55 52 52 33 71 48 266 444 653 765 716 713
2191 1394 1160 897 715 759 426 268 50 0 0 0 0 0 0 0 0 11 0 0 0 11 6 3 11 1 8 18 14 17 51 30 64 50 52 62 27 7 3 18 98 291 140
1417 1147 988 759 493 115 54 141 12 5 0 0 0 0 0 0 0 34 0 0 9 0 0 2 1 2 15 16 31 10 40 59 60 60 42 19 39 18 2 18 16 10 29
1272 884 626 259 309 220 9 20 0 0 0 0 0 0 0 4 0 6 0 4 0 0 0 0 16 18 21 0 0 31 26 44 45 48 58 72 27 34 2 1 1 6 13
1015 721 366 446 318 123 0 0 0 0 0 0 0 0 0 0 3 0 0 0 9 0 0 0 0 0 19 0 0 18 55 114 126 50 36 28 20 4 11 50 9 1 3
506 386 394 226 226 204 38 219 25 0 0 0 0 0 0 0 1 0 4 0 0 1 0 0 0 0 13 10 0 0 35 53 69 45 56 34 27 9 0 0 15 34 57
524 482 263 306 140 100 83 0 0 0 0 0 0 0 0 0 0 7 2 3 23 0 8 2 0 0 0 4 21 0 0 0 0 77 89 49 34 27 39 40 44 32 46
675 271 272 193 84 85 37 0 0 0 0 0 0 0 0 0 0 0 10 10 32 0 3 1 0 0 0 0 0 1 0 0 0 0 43 80 63 59 44 1 0 17 39
526 290 262 136 31 4 8 1 0 15 0 0 0 0 0 0 0 0 9 23 29 13 35 15 12 0 0 0 0 0 0 0 0 0 0 0 0 0 0 0 0 0 0
485 287 137 56 0 0 0 45 13 36 0 0 0 0 0 0 0 3 11 32 16 31 33 14 35 3 2 0 0 13 0 0 0 0 0 0 0 11 0 0 0 1 8
CIN
-101 -112 -12 -2 -0 -3 -3 -2 -1 -0 -0 -0 -0 -2 -10 -10 -12 -11 -6 -2 -0 -10 -24 -31 -40 -59 -66 -84 -95 -116 -129 -138 -141 -145 -123 -76 -63 -0 -94 -93 -49 -24 -1
-89 -150 -0 -0 -0 -0 -0 -0 -0 -0 -0 -0 -0 -0 -0 -2 -24 -30 -46 -40 -30 -35 -37 -35 -24 -23 -24 -22 -28 -39 -62 -82 -108 -123 -125 -120 -62 -86 -98 -81 -58 -48 -43
-101 -145 -43 -0 -0 -0 -0 -0 -0 -1 -0 -0 -1 -15 -64 -75 -68 -44 -18 -9 -6 -9 -12 -9 -6 -9 -13 -25 -38 -33 -25 -36 -44 -83 -96 -159 -0 -46 -77 -82 -65 -43 -91
-56 -20 -16 -0 -0 -0 -1 -0 -0 -0 -2 -17 -41 -45 -29 -7 -0 -0 -1 -0 -0 -2 -6 -29 -40 -39 -39 -41 -35 -23 -20 -16 -26 -38 -99 -0 -0 -58 -49 -56 -76 -62 -48
-5 -2 -1 -0 -0 -2 -0 -0 -0 -6 -5 -0 -0 -0 -0 -0 -0 -0 -1 -2 -2 -14 -11 -3 -17 -37 -23 -13 -24 -28 -34 -51 -50 -55 -92 -72 -20 -70 -39 -40 -36 -29 -18
-21 -7 -0 -0 -0 -0 -2 -0 -1 -0 -1 -5 -7 -9 -8 -24 -49 -62 -84 -94 -94 -86 -87 -84 -93 -146 -4 -95 -23 -30 -41 -32 -37 -101 -99 -38 -24 -81 -92 -92 -92 -57 -25
-29 -47 -36 -0 -0 -0 -0 -0 -0 -8 -41 -54 -71 -83 -89 -153 -178 -209 -201 -0 -0 -0 -0 -0 -0 -0 -0 -0 -130 -183 -191 -176 -192 -158 -80 -33 -185 -95 -82 -92 -83 -60 -16
-107 -108 -22 -0 -0 -0 -2 -46 -102 -63 -0 -0 -0 -0 -225 -0 -0 -0 -0 -0 -0 -0 -0 -0 -0 -0 -0 -0 -0 -0 -0 -210 -102 -193 -113 -73 -137 -22 -83 -87 -67 -27 -7
-72 -73 -93 -43 -12 -23 -85 -151 -0 -0 -0 -0 -0 -0 -0 -0 -0 -0 -0 -0 -0 -0 -0 -0 -0 -0 -0 -0 -0 -33 -0 -233 -220 -57 -111 -67 -126 -125 -29 -56 -71 -48 -10
-88 -140 -95 -68 -68 -74 -0 -0 -0 -0 -0 -0 -0 -0 -0 -0 -0 -0 -0 -0 -0 -0 -0 -0 -0 -0 -0 -0 -0 -0 -174 -164 -0 -1 -71 -108 -114 -110 -62 -68 -67 -46 -13
-62 -58 -68 -76 -33 -81 -45 -0 -0 -0 -0 -0 -0 -0 -0 -0 -0 -0 -0 -0 -0 -0 -0 -0 -0 -0 -0 -0 -34 -36 -95 -0 -0 -0 -20 -41 -28 -34 -39 -70 -69 -46 -10
-5 -21 -21 -23 -27 -44 -71 -69 -106 -79 -0 -0 -0 -0 -0 -0 -0 -0 -0 -0 -0 -0 -1 -0 -4 -18 -1 -0 -0 -0 -26 -0 -0 -0 -23 -51 -46 -33 -25 -22 -40 -41 -8
-27 -44 -16 -13 -54 -19 -7 -40 -31 -114 -107 -0 -0 -0 -0 -0 -0 -0 -0 -0 -0 -0 -0 -0 -0 -0 -0 -0 -0 -0 -0 -0 -0 -0 -43 -53 -58 -70 -84 -46 -23 -8 -4
-5 -29 -36 -36 -10 -3 -2 -3 -22 -131 -148 -0 -0 -0 -0 -0 -0 -0 -0 -0 -0 -0 -0 -0 -0 -0 -0 -30 -18 -2 -6 -0 -0 -0 -0 -41 -44 -40 -49 -75 -30 -19 -5
-6 -22 -17 -22 -10 -4 -2 -18 -21 -140 -0 -0 -0 -0 -0 -0 -0 -0 -4 -0 -0 -0 -0 -4 -0 -16 -9 -17 -11 -12 -25 -26 -25 -30 -27 -15 -9 -31 -36 -37 -46 -7 -12
-8 -10 -17 -16 -12 -14 -10 -14 -89 -154 -0 -0 -0 -0 -0 -0 -0 -0 -0 -0 -0 -16 -0 -22 -0 -27 -28 -21 -9 -23 -19 -12 -13 -12 -26 -28 -6 -3 -6 -8 -7 -5 -0
-9 -1 -2 -47 -124 -39 -3 -26 -112 -215 -0 -0 -0 -0 -0 -0 -0 -10 -15 -0 -0 -28 -14 -24 -22 -23 -35 -1 -16 -26 -23 -15 -5 -6 -5 -1 -19 -0 -0 -0 -0 -0 -0
-15 -100 -97 -97 -91 -55 -89 -102 -158 -5 -0 -0 -0 -0 -0 -0 -0 -8 -0 -0 -0 -24 -23 -22 -25 -5 -25 -20 -42 -25 -19 -27 -11 -11 -11 -16 -9 -15 -8 -7 -4 -0 -10
-122 -134 -83 -124 -149 -185 -144 -91 -118 -87 -0 -0 -0 -0 -0 -0 -0 -7 -0 -0 -20 -1 -0 -14 -14 -7 -31 -31 -12 -37 -37 -24 -15 -7 -13 -15 -7 -21 -27 -17 -34 -21 -6
-126 -165 -159 -241 -194 -147 -187 -134 -0 -0 -0 -0 -0 -0 -0 -2 -0 -19 -0 -4 -0 -0 -0 -0 -20 -19 -21 -0 -0 -21 -44 -34 -34 -34 -22 -10 -34 -23 -11 -42 -1 -11 -6
-153 -189 -220 -185 -208 -243 -1 -0 -0 -0 -0 -0 -0 -0 -0 -0 -1 -0 -0 -0 -12 -0 -0 -0 -0 -0 -25 -0 -0 -32 -35 -107 -126 -36 -55 -47 -22 -23 -12 -16 -37 -31 -1
-304 -267 -222 -245 -214 -189 -276 -118 -81 -0 -0 -0 -0 -0 -0 -0 -4 -0 -14 -0 -0 -4 -0 -0 -0 -0 -22 -45 -0 -0 -19 -12 -28 -31 -27 -27 -11 -30 -0 -0 -34 -22 -28
-260 -226 -267 -227 -274 -285 -236 -0 -0 -0 -0 -0 -0 -0 -0 -0 -0 -2 -1 -11 -10 -0 -14 -3 -0 -0 -0 -19 -30 -0 -0 -0 -0 -27 -35 -50 -32 -31 -26 -23 -24 -21 -22
-194 -274 -258 -292 -285 -293 -347 -0 -0 -0 -0 -0 -0 -0 -0 -0 -0 -0 -3 -2 -7 -0 -7 -7 -0 -0 -0 -0 -0 -4 -0 -0 -0 -0 -41 -34 -51 -34 -21 -4 -2 -14 -32
-250 -293 -281 -321 -371 -455 -428 -13 -0 -116 -0 -0 -0 -0 -0 -0 -0 -0 -1 -2 -3 -13 -8 -15 -9 -0 -0 -0 -0 -0 -0 -0 -0 -0 -0 -0 -0 -0 -0 -0 -0 -0 -0
-277 -290 -341 -367 -0 -0 -0 -236 -126 -97 -0 -0 -0 -0 -0 -0 -0 -1 -1 -6 -3 -6 -7 -14 -5 -3 -8 -2 -0 -41 -7 -0 -0 -0 -0 -0 -0 -33 -0 -0 -0 -12 -32
Wind_Speed
15 16 16 14 13 13 13 12 12 11 10 9 10 10 10 10 10 10 9 9 8 8 8 7 7 7 7 8 8 8 8 9 10 11 11 11 8 4 2 5 8 10 8
18 16 15 13 13 12 12 11 11 10 9 9 9 9 8 8 8 8 8 8 8 8 8 8 7 7 7 8 8 8 8 8 9 10 12 12 11 7 5 4 5 6 6
18 15 14 13 12 12 13 13 10 10 9 8 8 8 8 9 9 9 9 8 9 9 9 9 9 8 9 8 8 8 10 10 11 11 14 10 11 15 11 8 5 3 3
17 13 13 13 14 14 13 11 10 10 9 8 8 8 8 7 7 7 7 8 9 10 10 10 10 10 10 10 10 10 9 10 11 14 10 13 12 17 10 6 7 3 2
18 16 13 15 14 13 13 12 10 9 8 8 8 9 11 11 11 12 12 13 13 11 12 11 11 10 10 9 9 9 11 11 12 13 12 13 3 15 13 9 7 6 5
18 17 14 15 14 14 14 9 10 11 13 14 14 14 10 12 11 12 12 12 12 11 11 11 11 11 11 11 10 10 11 12 13 11 11 11 4 15 15 11 6 4 2
19 16 14 15 16 14 15 14 14 14 12 12 11 11 10 10 11 11 11 11 11 11 10 10 10 11 10 10 10 10 10 12 10 11 13 9 7 16 13 11 7 5 4
19 17 15 16 16 15 16 14 13 12 12 10 9 8 7 8 8 9 9 9 9 10 10 10 11 11 11 12 11 12 12 12 11 11 13 6 13 4 9 12 7 4 7
20 17 14 14 15 16 15 14 13 12 10 9 6 4 3 5 7 7 8 8 8 8 8 9 10 11 12 13 14 14 14 15 10 9 14 5 10 14 4 7 7 3 6
18 17 17 14 14 12 11 13 13 11 9 7 5 2 5 5 7 6 4 5 5 6 7 7 11 12 13 14 16 17 16 17 11 12 7 5 9 7 5 6 7 5 3
18 18 19 16 14 13 12 10 11 10 8 6 4 8 0 3 6 9 5 2 3 8 8 9 10 15 12 16 14 13 15 7 12 6 3 11 7 6 6 6 4 3 1
17 14 19 15 13 12 10 12 9 9 6 5 5 5 6 3 5 7 4 4 7 5 11 9 11 12 10 8 7 10 3 8 8 9 4 10 9 6 3 1 3 2 3
22 14 17 12 9 7 8 7 3 4 3 5 7 7 5 4 4 4 4 4 4 10 6 8 6 6 7 5 5 5 5 6 5 5 7 8 6 5 4 5 6 3 5
14 18 16 12 8 6 4 1 5 5 3 4 7 6 5 4 4 4 3 4 4 4 6 6 5 6 7 7 7 10 9 5 5 5 4 3 2 9 11 9 8 7 6
14 14 12 10 7 6 4 3 4 5 4 5 7 6 5 4 4 4 3 4 4 4 5 5 4 5 5 6 9 10 7 9 10 7 6 23 19 21 17 12 12 9 7
12 13 10 11 8 7 4 5 4 4 4 5 6 4 6 5 4 5 4 5 5 3 4 4 5 4 4 7 8 9 12 10 12 11 9 10 19 22 23 18 13 6 4
13 11 11 12 10 6 4 3 4 3 4 5 6 6 6 4 5 5 5 5 5 5 5 5 5 4 5 7 6 4 4 7 9 10 10 10 12 28 30 29 26 29 20
13 13 10 10 9 5 4 3 4 3 2 5 4 6 5 5 5 4 5 4 5 4 5 4 4 6 4 2 3 3 3 6 5 9 8 7 7 8 17 26 27 26 26
14 14 9 10 10 7 4 5 6 3 2 4 5 6 3 4 5 4 4 3 5 6 6 6 5 4 5 6 3 4 4 4 4 6 9 8 8 8 7 19 22 23 25
13 12 9 8 10 7 3 5 5 3 2 6 6 5 5 3 4 6 4 3 5 6 6 6 7 4 4 5 7 3 3 3 3 4 5 5 5 8 9 9 7 10 20
12 11 10 11 9 7 5 5 5 5 4 6 6 4 5 4 5 6 4 5 3 5 5 6 5 7 2 4 4 4 3 5 4 5 6 5 6 9 8 7 5 4 7
13 12 12 11 10 8 6 2 3 4 4 7 6 4 4 4 6 5 5 4 5 4 6 5 7 4 4 4 3 4 2 0 4 5 4 4 5 4 5 6 6 5 5
16 14 13 13 12 10 6 5 5 5 4 4 6 5 4 4 5 5 4 5 4 7 4 5 8 7 5 5 6 3 4 4 7 2 5 4 4 3 3 4 5 5 4
16 14 14 14 12 8 9 7 8 7 6 4 6 6 4 4 5 5 5 4 5 5 5 5 6 6 6 5 5 3 2 2 2 5 3 2 3 5 4 5 5 4 5
18 16 14 14 12 9 8 8 6 2 6 4 7 6 6 3 3 5 4 3 3 4 4 6 5 6 4 5 4 4 5 5 5 4 5 5 5 3 4 4 3 3 4
17 15 14 13 11 11 9 9 7 8 6 7 7 6 6 5 3 3 3 5 3 3 4 4 3 6 5 5 6 5 4 4 5 5 6 6 5 3 3 3 1 3 3
Wind_Direction
104 111 108 109 103 99 95 91 88 83 77 73 67 65 63 56 53 52 50 47 47 43 41 38 31 27 16 13 7 4 359 351 346 339 332 325 323 326 56 13 355 70 64
109 109 109 110 106 102 100 93 88 86 81 78 76 71 65 57 53 49 45 37 30 26 22 17 10 7 2 354 350 344 340 334 328 321 311 296 263 235 219 134 37 44 45
107 115 120 121 116 110 99 92 91 90 84 76 71 62 56 49 44 40 34 30 25 20 15 8 2 359 352 346 340 334 330 324 317 311 302 279 262 195 207 165 118 54 45
123 115 118 112 105 101 98 99 97 86 81 79 75 71 66 60 54 50 42 32 29 22 17 15 8 359 350 344 338 330 319 311 308 306 292 278 273 169 185 176 146 149 184
101 103 115 109 107 106 101 90 87 89 90 90 86 72 59 50 43 42 44 39 30 24 24 22 19 8 356 342 334 331 324 316 306 296 276 277 105 158 171 166 175 188 209
113 105 111 111 105 101 96 105 110 92 75 69 63 60 61 58 53 49 44 38 33 26 20 13 9 5 358 359 352 339 328 318 311 282 272 268 260 160 160 159 158 143 190
110 118 119 116 112 111 102 91 83 74 80 78 77 72 68 65 61 53 45 36 27 17 11 7 3 355 349 343 335 328 322 316 302 292 288 284 125 162 154 144 154 171 214
124 117 125 115 111 106 99 98 99 93 84 79 78 79 83 84 79 69 52 35 24 14 3 356 349 340 332 324 314 309 306 303 305 299 298 77 109 325 135 137 137 190 224
128 125 136 126 113 108 112 111 104 98 96 91 93 97 110 123 108 108 76 41 16 0 345 343 331 320 313 305 300 291 289 290 289 283 283 120 129 150 143 83 71 21 253
131 139 137 134 138 132 128 125 123 121 122 122 117 190 224 201 151 145 65 49 4 324 320 316 312 304 310 302 289 277 280 285 272 265 273 127 171 124 99 91 62 33 284
148 148 140 148 150 135 142 144 146 144 141 150 196 0 50 47 356 341 106 213 277 291 292 291 289 293 301 296 300 269 268 275 280 295 49 143 128 134 153 107 97 61 160
151 121 127 137 148 149 136 162 168 135 101 76 28 16 12 25 11 341 15 285 262 259 310 258 290 273 347 343 337 340 277 312 329 323 5 75 65 54 34 230 148 161 226
109 117 129 123 128 156 156 175 117 85 115 102 60 359 30 5 1 355 9 345 357 17 15 356 356 17 334 325 301 302 323 330 326 327 66 72 65 47 28 347 305 236 228
128 125 134 125 133 127 144 130 126 106 102 76 98 25 16 12 356 354 15 350 10 10 356 341 15 338 311 294 355 6 355 351 336 330 343 128 14 9 1 344 329 267 247
123 114 115 116 117 90 90 87 76 117 68 84 66 50 29 355 350 328 14 10 21 25 344 336 350 315 345 353 27 11 6 5 7 358 351 32 26 13 0 351 327 292 242
133 125 142 127 120 128 113 107 105 99 162 100 88 55 37 359 342 329 38 14 10 14 317 330 323 2 344 38 28 22 19 18 29 12 2 25 25 22 20 17 2 351 286
144 145 134 90 86 113 111 158 108 170 121 93 114 87 57 19 341 326 43 23 346 323 342 12 336 358 3 39 6 22 34 32 37 28 26 49 49 50 49 49 51 56 39
114 96 110 129 142 128 129 183 93 45 100 99 82 86 42 18 355 37 23 20 311 325 14 12 6 352 8 95 72 14 20 55 48 51 51 64 58 49 53 56 53 57 59
117 124 137 130 147 131 188 87 83 236 113 90 77 72 64 48 9 357 48 342 334 12 30 0 360 354 341 356 4 49 21 28 43 70 61 60 75 79 66 65 64 63 62
132 132 153 150 160 150 137 144 147 175 132 83 70 82 18 69 37 349 88 355 41 30 23 356 345 321 35 2 335 341 100 76 37 62 67 48 70 91 98 88 78 79 77
135 138 172 158 150 155 164 177 168 155 107 97 100 81 75 21 57 5 55 17 25 61 21 0 340 346 36 12 337 330 213 167 124 71 73 58 21 42 58 127 119 91 111
143 167 173 166 164 193 196 141 133 116 84 96 89 90 71 81 38 67 6 61 1 94 42 10 352 346 346 63 349 311 356 158 30 95 96 113 84 100 62 52 51 81 94
167 174 175 168 179 195 125 107 83 75 96 127 142 148 93 84 89 91 62 22 33 41 27 37 13 358 342 5 24 50 352 17 325 86 149 117 123 78 87 145 116 98 42
168 168 174 175 183 169 147 152 155 168 173 129 107 100 96 85 103 98 67 49 19 78 27 32 23 359 19 358 356 12 355 114 8 339 9 149 163 165 109 60 47 26 67
167 176 173 168 179 143 175 162 170 190 127 128 100 108 103 116 125 112 105 111 34 55 84 25 56 18 20 357 1 358 8 12 10 9 334 347 12 59 67 84 80 79 66
168 161 169 160 171 166 171 146 189 127 147 125 138 170 169 154 160 56 104 97 53 78 30 83 74 69 358 23 358 351 33 26 1 6 352 355 343 307 118 119 207 149 113